| time (UTC) | temp C | wind direction | speed KPH | gust KPH | rain 1hr cm | rain 24hr cm | rain mn cm | humidity % | barometer mb |
| 20260507170031 | 21 | 119 | 0.0 | 0.0 | 0.00 | 0.00 | 0.00 | 65 | 1011.4 |
| 20260507164536 | 21 | 216 | 0.0 | 4.8 | 0.00 | 0.00 | 0.00 | 66 | 1011.4 |
| 20260507163037 | 21 | 134 | 0.0 | 3.2 | 0.00 | 0.00 | 0.00 | 66 | 1011.4 |
| 20260507161539 | 20 | 360 | 0.0 | 0.0 | 0.00 | 0.00 | 0.00 | 70 | 1011.5 |
| 20260507160042 | 20 | 360 | 0.0 | 1.6 | 0.00 | 0.00 | 0.00 | 70 | 1011.5 |
| 20260507154531 | 21 | 360 | 1.6 | 6.4 | 0.00 | 0.00 | 0.00 | 64 | 1011.4 |
| 20260507153030 | 21 | 78 | 0.0 | 9.7 | 0.00 | 0.00 | 0.00 | 69 | 1011.6 |
| 20260507151526 | 20 | 360 | 0.0 | 8.0 | 0.00 | 0.00 | 0.00 | 65 | 1011.7 |
| 20260507150028 | 20 | 360 | 0.0 | 3.2 | 0.00 | 0.00 | 0.00 | 66 | 1011.7 |
| 20260507144533 | 21 | 360 | 0.0 | 8.0 | 0.00 | 0.00 | 0.00 | 63 | 1011.9 |
| 20260507143025 | 20 | 360 | 3.2 | 6.4 | 0.00 | 0.00 | 0.00 | 67 | 1011.7 |
| 20260507141524 | 20 | 360 | 0.0 | 4.8 | 0.00 | 0.00 | 0.00 | 64 | 1011.8 |
| 20260507140023 | 20 | 104 | 0.0 | 4.8 | 0.00 | 0.00 | 0.00 | 63 | 1011.8 |
| 20260507134523 | 20 | 75 | 0.0 | 6.4 | 0.00 | 0.00 | 0.00 | 58 | 1012.0 |
| 20260507133023 | 21 | 49 | 1.6 | 11.3 | 0.00 | 0.00 | 0.00 | 60 | 1011.9 |
| 20260507131522 | 20 | 71 | 1.6 | 6.4 | 0.00 | 0.00 | 0.00 | 63 | 1012.0 |
| 20260507130026 | 19 | 30 | 0.0 | 4.8 | 0.00 | 0.00 | 0.00 | 62 | 1012.0 |
| 20260507124536 | 19 | 62 | 1.6 | 4.8 | 0.00 | 0.05 | 0.00 | 59 | 1012.0 |
| 20260507123022 | 21 | 61 | 3.2 | 11.3 | 0.00 | 0.05 | 0.00 | 53 | 1012.1 |
| 20260507121520 | 21 | 21 | 1.6 | 8.0 | 0.00 | 0.05 | 0.00 | 58 | 1012.1 |
| 20260507120019 | 20 | 27 | 1.6 | 12.9 | 0.00 | 0.05 | 0.00 | 58 | 1012.2 |
| 20260507114518 | 21 | 123 | 1.6 | 8.0 | 0.00 | 0.38 | 0.00 | 61 | 1012.3 |
| 20260507113019 | 20 | 105 | 1.6 | 6.4 | 0.00 | 0.38 | 0.00 | 56 | 1012.4 |
| 20260507111517 | 20 | 31 | 0.0 | 8.0 | 0.00 | 0.38 | 0.00 | 58 | 1012.6 |
| 20260507110113 | 20 | 215 | 3.2 | 6.4 | 0.00 | 0.38 | 0.00 | 53 | 1012.7 |
| 20260507104611 | 20 | 294 | 0.0 | 8.0 | 0.00 | 0.38 | 0.00 | 58 | 1012.9 |
| 20260507103006 | 20 | 108 | 0.0 | 6.4 | 0.00 | 0.38 | 0.00 | 59 | 1013.0 |
| 20260507101502 | 18 | 90 | 3.2 | 9.7 | 0.00 | 0.38 | 0.00 | 57 | 1013.2 |
| 20260507100003 | 18 | 282 | 1.6 | 9.7 | 0.00 | 0.38 | 0.00 | 61 | 1013.2 |
| 20260507094558 | 19 | 277 | 1.6 | 6.4 | 0.00 | 0.38 | 0.00 | 67 | 1013.2 |
| 20260507093055 | 18 | 227 | 0.0 | 9.7 | 0.00 | 0.38 | 0.00 | 63 | 1013.2 |
| 20260507091550 | 18 | 360 | 0.0 | 4.8 | 0.00 | 0.38 | 0.00 | 59 | 1013.1 |
| 20260507090047 | 18 | 298 | 1.6 | 6.4 | 0.00 | 0.38 | 0.00 | 62 | 1013.1 |
| 20260507084544 | 18 | 275 | 1.6 | 4.8 | 0.00 | 0.43 | 0.00 | 64 | 1013.0 |
| 20260507083039 | 17 | 345 | 3.2 | 8.0 | 0.00 | 0.43 | 0.00 | 63 | 1012.9 |
| 20260507081535 | 17 | 350 | 0.0 | 6.4 | 0.00 | 0.43 | 0.00 | 62 | 1012.9 |
| 20260507080031 | 17 | 360 | 0.0 | 3.2 | 0.00 | 0.43 | 0.00 | 65 | 1012.8 |
| 20260507074528 | 15 | 360 | 0.0 | 0.0 | 0.00 | 0.76 | 0.00 | 68 | 1012.8 |
| 20260507073022 | 15 | 163 | 0.0 | 0.0 | 0.00 | 0.76 | 0.00 | 68 | 1012.7 |
| 20260507071519 | 14 | 169 | 0.0 | 3.2 | 0.00 | 0.76 | 0.00 | 72 | 1012.6 |
| 20260507070015 | 13 | 169 | 0.0 | 3.2 | 0.00 | 0.76 | 0.00 | 74 | 1012.5 |
| 20260506234502 | 11 | 97 | 1.6 | 6.4 | 0.00 | 4.06 | 0.00 | 81 | 1010.8 |
| 20260506233112 | 11 | 126 | 0.0 | 3.2 | 0.00 | 4.06 | 0.00 | 80 | 1010.7 |
| 20260506231613 | 12 | 126 | 1.6 | 4.8 | 0.00 | 4.06 | 0.00 | 78 | 1010.8 |
| 20260506230104 | 11 | 82 | 1.6 | 4.8 | 0.00 | 4.06 | 0.00 | 80 | 1011.0 |
| 20260506224555 | 12 | 81 | 1.6 | 4.8 | 0.00 | 4.06 | 0.00 | 80 | 1011.0 |
| 20260506223052 | 12 | 82 | 1.6 | 4.8 | 0.00 | 4.06 | 0.00 | 79 | 1011.0 |
| 20260506221555 | 12 | 88 | 0.0 | 4.8 | 0.00 | 4.06 | 0.00 | 79 | 1010.9 |
| 20260506220048 | 12 | 85 | 1.6 | 4.8 | 0.00 | 4.06 | 0.00 | 80 | 1010.7 |
| 20260506214550 | 11 | 94 | 1.6 | 6.4 | 0.00 | 4.06 | 4.06 | 82 | 1010.7 |
| 20260506213045 | 12 | 304 | 0.0 | 4.8 | 0.00 | 4.06 | 4.06 | 81 | 1010.6 |
| 20260506211545 | 12 | 306 | 0.0 | 0.0 | 0.00 | 4.06 | 4.06 | 81 | 1010.5 |
| 20260506210045 | 12 | 306 | 0.0 | 0.0 | 0.00 | 4.06 | 4.06 | 80 | 1010.5 |
| 20260506204544 | 12 | 306 | 0.0 | 0.0 | 0.00 | 4.06 | 4.06 | 76 | 1010.3 |
| 20260506203044 | 13 | 306 | 0.0 | 3.2 | 0.00 | 4.06 | 4.06 | 75 | 1010.2 |
| 20260506201543 | 13 | 298 | 1.6 | 6.4 | 0.00 | 4.06 | 4.06 | 74 | 1010.1 |
| 20260506200046 | 13 | 114 | 1.6 | 14.5 | 0.00 | 4.06 | 4.06 | 73 | 1009.9 |
| 20260506194548 | 14 | 348 | 1.6 | 8.0 | 0.00 | 4.06 | 4.06 | 72 | 1009.6 |
| 20260506193042 | 13 | 197 | 3.2 | 14.5 | 0.00 | 4.06 | 4.06 | 72 | 1009.3 |
| 20260506191541 | 13 | 308 | 1.6 | 6.4 | 0.00 | 4.06 | 4.06 | 73 | 1009.2 |
| 20260506190040 | 13 | 241 | 1.6 | 12.9 | 0.00 | 4.06 | 4.06 | 73 | 1009.0 |
| 20260506184540 | 13 | 309 | 1.6 | 6.4 | 0.00 | 4.06 | 4.06 | 73 | 1008.7 |
| 20260506183039 | 14 | 142 | 0.0 | 4.8 | 0.00 | 4.06 | 4.06 | 70 | 1008.9 |
| 20260506181538 | 15 | 142 | 1.6 | 8.0 | 0.00 | 4.06 | 4.06 | 70 | 1008.7 |
| 20260506180041 | 15 | 116 | 0.0 | 9.7 | 0.00 | 4.06 | 4.06 | 71 | 1008.5 |
| 20260506174536 | 14 | 134 | 0.0 | 12.9 | 0.00 | 4.06 | 4.06 | 72 | 1008.4 |
| 20260506173042 | 15 | 182 | 1.6 | 6.4 | 0.00 | 4.06 | 4.06 | 75 | 1008.2 |
| 20260506171533 | 15 | 331 | 0.0 | 3.2 | 0.00 | 4.06 | 4.06 | 79 | 1008.3 |